{"data":{"norad_id":65295,"epoch":"2026-09-20T14:42:43.814304Z","epoch_age_seconds":107706,"freshness":"FRESH","line1":"1 65295U 25184Y   26263.61300711  .00026298  00000+0  81323-3 0  9991","line2":"2 65295  97.2845 311.6032 0001727  96.5519 263.5921 15.33477147 60749","mean_motion":15.33477147,"eccentricity":0.0001727,"inclination_deg":97.2845,"raan_deg":311.6032,"arg_perigee_deg":96.5519,"mean_anomaly_deg":263.5921,"bstar":0.00081323,"rev_number":6074,"period_min":93.904236057063,"perigee_km":464.26564224617,"apogee_km":466.62941634259,"semimajor_km":6843.5845292944,"source":"CELESTRAK","updated_at":"2026-09-21T09:00:35.568295Z"}}